Zurück zum Katalog

GLOBALSTAR M063

AktivKommunikationLEO
NORAD 26081·PAYLOAD·🇺🇸 United States

Gestartet Feb 8, 2000 von Cape Canaveral Space Force Station

Loading…

Nächste Überflüge (nächste 24 Stunden)

TLE

AktuellSource: Space-Track

Epoche: Sep 14, 2026, 06:13 UTC

1 26081U 00008A   26257.25937402 -.00000102  00000-0 -28859-3 0  9999
2 26081  51.9988 355.6863 0004981 103.6122 270.8734 11.86188631211460

Verfolge GLOBALSTAR M063 in Echtzeit mit AllMySat

Download on the App Store